CW7109 Weather Reports


time (UTC)temp
C
wind
direction
speed
KPH
gust
KPH
rain 1hr
cm
rain 24hr
cm
rain mn
cm
humidity
%
barometer
mb
20260504060147 6 168 0.0 0.0 0.00 0.00 0.00 70 1016.7
20260504050146 7 168 0.0 0.0 0.00 0.00 0.00 69 1016.7
20260504045146 7 168 0.0 0.0 0.00 0.00 0.00 68 1016.6
20260504044146 7 168 0.0 0.0 0.00 0.00 0.00 67 1016.6
20260504043146 7 168 0.0 0.0 0.00 0.00 0.00 66 1016.6
20260504042146 7 168 0.0 0.0 0.00 0.00 0.00 64 1016.6
20260504041146 7 168 0.0 0.0 0.00 0.00 0.00 65 1016.5
20260504040146 7 168 0.0 0.0 0.00 0.00 0.00 65 1016.1
20260504035145 7 168 0.0 0.0 0.00 0.00 0.00 65 1016.1
20260504034145 7 168 0.0 0.0 0.00 0.00 0.00 65 1016.2
20260504032145 8 168 0.0 0.0 0.00 0.00 0.00 63 1016.1
20260504031145 8 168 0.0 0.0 0.00 0.00 0.00 63 1015.9
20260504025145 8 168 0.0 0.0 0.00 0.00 0.00 61 1016.1
20260504024145 8 168 0.0 0.0 0.00 0.00 0.00 60 1016.0
20260504023145 8 168 0.0 0.0 0.00 0.00 0.00 60 1016.0
20260504021145 9 168 0.0 0.0 0.00 0.00 0.00 56 1015.9
20260504015144 10 168 0.0 0.0 0.00 0.00 0.00 56 1015.9
20260504014144 10 168 0.0 0.0 0.00 0.00 0.00 55 1015.9
20260504013144 10 168 0.0 0.0 0.00 0.00 0.00 52 1015.9
20260504012144 11 168 0.0 0.0 0.00 0.00 0.00 50 1015.8
20260504011144 11 168 0.0 0.0 0.00 0.00 0.00 47 1015.8
20260504005144 12 168 0.0 0.0 0.00 0.00 0.00 44 1015.5
20260504003143 12 168 0.0 0.0 0.00 0.00 0.00 41 1015.4
20260504002143 13 168 0.0 0.0 0.00 0.00 0.00 39 1015.3
20260504001143 15 168 0.0 1.6 0.00 0.00 0.00 34 1015.2
20260504000143 15 168 0.0 0.0 0.00 0.00 0.00 32 1015.1
20260503235143 15 168 0.0 0.0 0.00 0.00 0.00 31 1015.0
20260503234143 15 247 0.0 1.6 0.00 0.00 0.00 29 1014.9
20260503233143 15 247 1.6 9.7 0.00 0.00 0.00 26 1014.7
20260503232142 16 261 6.4 6.4 0.00 0.00 0.00 27 1014.6
20260503231142 16 209 4.8 4.8 0.00 0.00 0.00 26 1014.6
20260503225142 16 340 1.6 14.5 0.00 0.00 0.00 25 1014.7
20260503224142 16 217 0.0 16.1 0.00 0.00 0.00 25 1014.7
20260503223142 16 240 0.0 16.1 0.00 0.00 0.00 24 1014.6
20260503222142 16 53 0.0 8.0 0.00 0.00 0.00 24 1014.7
20260503221142 17 273 1.6 12.9 0.00 0.00 0.00 24 1014.6
20260503220142 17 60 0.0 16.1 0.00 0.00 0.00 22 1014.7
20260503215142 17 239 3.2 6.4 0.00 0.00 0.00 22 1014.7
20260503213141 17 234 3.2 17.7 0.00 0.00 0.00 20 1014.7
20260503212141 17 238 4.8 14.5 0.00 0.00 0.00 21 1014.7
20260503211141 17 243 3.2 11.3 0.00 0.00 0.00 21 1014.7
20260503210141 17 120 3.2 14.5 0.00 0.00 0.00 22 1014.6
20260503205141 17 242 6.4 20.9 0.00 0.00 0.00 20 1014.6
20260503203141 18 190 6.4 20.9 0.00 0.00 0.00 21 1014.8
20260503202141 17 204 1.6 9.7 0.00 0.00 0.00 22 1014.8
20260503200140 17 57 0.0 25.7 0.00 0.00 0.00 24 1015.1
20260503195140 17 186 12.9 17.7 0.00 0.00 0.00 23 1015.3
20260503194140 17 298 1.6 14.5 0.00 0.00 0.00 22 1015.6
20260503193140 17 212 8.0 16.1 0.00 0.00 0.00 22 1015.6
20260503192140 16 51 1.6 16.1 0.00 0.00 0.00 26 1015.7
20260503191140 16 313 1.6 8.0 0.00 0.00 0.00 26 1015.8
20260503190140 16 284 0.0 9.7 0.00 0.00 0.00 24 1015.8
20260503185140 16 82 4.8 16.1 0.00 0.00 0.00 25 1016.1
20260503184140 16 238 14.5 20.9 0.00 0.00 0.00 26 1016.1
20260503182140 15 242 3.2 16.1 0.00 0.00 0.00 26 1016.4
20260503180139 15 249 6.4 14.5 0.00 0.00 0.00 27 1016.4
20260503175139 15 55 1.6 11.3 0.00 0.00 0.00 28 1016.3
20260503174139 15 92 1.6 14.5 0.00 0.00 0.00 27 1016.5
20260503173139 14 296 3.2 9.7 0.00 0.00 0.00 28 1016.4
20260503171139 14 138 0.0 17.7 0.00 0.00 0.00 27 1016.5
20260503170138 13 217 1.6 19.3 0.00 0.00 0.00 27 1016.6
20260503160138 13 226 0.0 27.4 0.00 0.00 0.00 28 1017.0
20260503150137 11 103 1.6 11.3 0.00 0.00 0.00 32 1017.0
20260503140137 10 53 3.2 9.7 0.00 0.00 0.00 39 1017.4
20260503131136 9 209 4.8 19.3 0.00 0.00 0.00 43 1017.3
20260503130136 9 238 12.9 12.9 0.00 0.00 0.00 45 1017.2
20260503120135 7 250 1.6 11.3 0.00 0.00 0.00 52 1017.0
20260503110135 5 209 0.0 8.0 0.00 0.00 0.00 62 1016.1
20260503100134 5 85 0.0 6.4 0.00 0.00 0.00 63 1015.3
20260503090133 5 291 0.0 6.4 0.00 0.00 0.00 63 1014.9
20260503081133 6 194 0.0 3.2 0.00 0.00 0.00 64 1014.5
20260503080133 6 202 0.0 3.2 0.00 0.00 0.00 63 1014.3
20260503072133 6 239 4.8 6.4 0.00 0.00 0.00 62 1014.2
20260503071132 6 199 1.6 3.2 0.00 0.00 0.00 61 1014.0